BAW773 ESSA-EGLL

Flight info

Callsign BAW773
Flight time 2h 19m
Altitude 38000
Route ARS N623 BEDLA N866 LAPSI DCT UPGAS DCT TIPAN DCT WECOW DCT BINBO DCT AKOKO N866 BUKUT P7 BARMI
Aircraft A320/M-SDE3FGHIJ1KRWXY/LB1

Departure

Time 2026-05-05 12:44
Airport Stockholm-Arlanda Airport (ESSA)

Arrival

Time 2026-05-05 15:03
Airport London Heathrow Airport (EGLL)
Time Latitude Longitude Altitude Speed Heading
2026-05-05 12:00 59.64346 17.92869 113 ft 0 kts 36°
2026-05-05 12:12 59.64346 17.92868 113 ft 0 kts 36°
2026-05-05 12:32 59.64345 17.92867 112 ft 2 kts 36°
2026-05-05 12:32 59.64326 17.92840 110 ft 1 kts 36°
2026-05-05 12:33 59.64309 17.92824 112 ft 4 kts 342°
2026-05-05 12:33 59.64290 17.92825 111 ft 4 kts 33°
2026-05-05 12:33 59.64279 17.92794 112 ft 4 kts 104°
2026-05-05 12:33 59.64287 17.92748 111 ft 4 kts 111°
2026-05-05 12:34 59.64290 17.92733 112 ft 1 kts 111°
2026-05-05 12:37 59.64284 17.92750 112 ft 3 kts 130°
2026-05-05 12:37 59.64257 17.92767 112 ft 5 kts 166°
2026-05-05 12:37 59.64215 17.92794 111 ft 7 kts 147°
2026-05-05 12:38 59.64179 17.92883 112 ft 9 kts 152°
2026-05-05 12:38 59.64124 17.92816 112 ft 11 kts 254°
2026-05-05 12:38 59.64155 17.92663 111 ft 13 kts 297°
2026-05-05 12:38 59.64199 17.92498 114 ft 14 kts 297°
2026-05-05 12:39 59.64244 17.92324 115 ft 14 kts 297°
2026-05-05 12:39 59.64296 17.92129 114 ft 18 kts 297°
2026-05-05 12:39 59.64347 17.91944 113 ft 11 kts 310°
2026-05-05 12:39 59.64431 17.91939 112 ft 14 kts 10°
2026-05-05 12:40 59.64542 17.91979 110 ft 18 kts 10°
2026-05-05 12:40 59.64677 17.92027 108 ft 22 kts 10°
2026-05-05 12:40 59.64837 17.92086 107 ft 25 kts 11°
2026-05-05 12:40 59.65017 17.92149 107 ft 27 kts 11°
2026-05-05 12:41 59.65209 17.92220 107 ft 29 kts 11°
2026-05-05 12:41 59.65418 17.92296 105 ft 32 kts 10°
2026-05-05 12:41 59.65634 17.92374 104 ft 29 kts 10°
2026-05-05 12:41 59.65800 17.92435 105 ft 19 kts 10°
2026-05-05 12:42 59.65881 17.92455 107 ft 10 kts 348°
2026-05-05 12:42 59.65912 17.92354 110 ft 9 kts 279°
2026-05-05 12:42 59.65922 17.92241 113 ft 7 kts 280°
2026-05-05 12:42 59.65931 17.92148 113 ft 7 kts 280°
2026-05-05 12:43 59.65890 17.92105 115 ft 9 kts 189°
2026-05-05 12:43 59.65680 17.92028 107 ft 65 kts 191°
2026-05-05 12:43 59.65016 17.91788 105 ft 125 kts 191°
2026-05-05 12:43 59.64025 17.91409 271 ft 151 kts 199°
2026-05-05 12:44 59.63015 17.91033 938 ft 148 kts 195°
2026-05-05 12:44 59.61983 17.90659 1448 ft 158 kts 201°
2026-05-05 12:44 59.61054 17.89390 1753 ft 173 kts 238°
2026-05-05 12:44 59.60427 17.87207 2079 ft 194 kts 244°
2026-05-05 12:45 59.59703 17.84761 2564 ft 212 kts 242°
2026-05-05 12:45 59.58945 17.82293 3400 ft 215 kts 241°
2026-05-05 12:45 59.58182 17.79697 4034 ft 228 kts 244°
2026-05-05 12:45 59.57409 17.76796 4620 ft 245 kts 245°
2026-05-05 12:46 59.56778 17.73654 5468 ft 250 kts 262°
2026-05-05 12:46 59.56764 17.70212 6366 ft 252 kts 274°
2026-05-05 12:46 59.56857 17.66738 7256 ft 256 kts 273°
2026-05-05 12:46 59.56940 17.63218 8160 ft 258 kts 272°
2026-05-05 12:47 59.56915 17.59651 8995 ft 263 kts 260°
2026-05-05 12:47 59.56367 17.56190 9838 ft 265 kts 251°
2026-05-05 12:47 59.55732 17.52730 10326 ft 276 kts 251°
2026-05-05 12:47 59.55052 17.49056 10732 ft 291 kts 251°
2026-05-05 12:48 59.54355 17.45282 11488 ft 293 kts 251°
2026-05-05 12:48 59.53660 17.41529 12366 ft 291 kts 251°
2026-05-05 12:48 59.52964 17.37793 13286 ft 289 kts 251°
2026-05-05 12:48 59.52275 17.34084 14121 ft 287 kts 251°
2026-05-05 12:49 59.51587 17.30395 14887 ft 287 kts 251°
2026-05-05 12:49 59.50898 17.26706 15628 ft 287 kts 251°
2026-05-05 12:49 59.50208 17.23018 16334 ft 287 kts 251°
2026-05-05 12:49 59.49517 17.19329 17049 ft 288 kts 251°
2026-05-05 12:50 59.48821 17.15626 17786 ft 289 kts 251°
2026-05-05 12:50 59.48124 17.11919 18458 ft 289 kts 250°
2026-05-05 12:50 59.47422 17.08193 19099 ft 291 kts 250°
2026-05-05 12:50 59.46719 17.04446 19710 ft 293 kts 250°
2026-05-05 12:51 59.46007 17.00666 20315 ft 296 kts 250°
2026-05-05 12:51 59.45283 16.96850 20881 ft 299 kts 250°
2026-05-05 12:51 59.44552 16.93004 21439 ft 302 kts 250°
2026-05-05 12:51 59.43822 16.89188 21976 ft 304 kts 250°
2026-05-05 12:52 59.43072 16.85272 22542 ft 308 kts 250°
2026-05-05 12:52 59.42314 16.81317 23083 ft 311 kts 250°
2026-05-05 12:52 59.41547 16.77312 23599 ft 314 kts 250°
2026-05-05 12:52 59.40779 16.73278 24050 ft 317 kts 250°
2026-05-05 12:53 59.40013 16.69208 24503 ft 319 kts 250°
2026-05-05 12:53 59.39243 16.65111 24891 ft 322 kts 250°
2026-05-05 12:53 59.38461 16.60961 25282 ft 326 kts 250°
2026-05-05 12:53 59.37672 16.56779 25696 ft 328 kts 250°
2026-05-05 12:54 59.36060 16.48336 26555 ft 333 kts 250°
2026-05-05 12:54 59.35244 16.44077 26978 ft 335 kts 250°
2026-05-05 12:54 59.34423 16.39795 27377 ft 337 kts 250°
2026-05-05 12:55 59.33595 16.35471 27783 ft 340 kts 250°
2026-05-05 12:55 59.32763 16.31127 28232 ft 342 kts 250°
2026-05-05 12:55 59.31926 16.26772 28639 ft 343 kts 250°
2026-05-05 12:55 59.31078 16.22389 29033 ft 345 kts 250°
2026-05-05 12:56 59.30210 16.17931 29413 ft 347 kts 250°
2026-05-05 12:56 59.29358 16.13563 29792 ft 349 kts 250°
2026-05-05 12:56 59.28488 16.09094 30131 ft 352 kts 250°
2026-05-05 12:56 59.27613 16.04600 30456 ft 355 kts 250°
2026-05-05 12:57 59.26731 16.00081 30763 ft 357 kts 250°
2026-05-05 12:57 59.25843 15.95529 31079 ft 359 kts 250°
2026-05-05 12:57 59.24952 15.90963 31461 ft 359 kts 250°
2026-05-05 12:57 59.24062 15.86414 31902 ft 358 kts 250°
2026-05-05 12:58 59.23167 15.81867 32339 ft 358 kts 250°
2026-05-05 12:58 59.22271 15.77336 32753 ft 358 kts 249°
2026-05-05 12:58 59.21374 15.72814 33114 ft 357 kts 250°
2026-05-05 12:58 59.20476 15.68309 33557 ft 355 kts 250°
2026-05-05 12:59 59.19583 15.63826 33961 ft 354 kts 250°
2026-05-05 12:59 59.18689 15.59341 34254 ft 355 kts 250°
2026-05-05 12:59 59.18080 15.56301 34438 ft 356 kts 250°
2026-05-05 13:00 59.16260 15.47233 34864 ft 362 kts 249°
2026-05-05 13:00 59.15340 15.42650 35103 ft 364 kts 249°
2026-05-05 13:01 59.12539 15.28789 35815 ft 369 kts 249°
2026-05-05 13:01 59.11590 15.24123 36040 ft 371 kts 249°
2026-05-05 13:01 59.10637 15.19446 36265 ft 373 kts 249°
2026-05-05 13:01 59.09682 15.14749 36491 ft 374 kts 249°
2026-05-05 13:02 59.08722 15.10040 36695 ft 376 kts 249°
2026-05-05 13:02 59.07753 15.05316 36910 ft 377 kts 249°
2026-05-05 13:02 59.06775 15.00576 37110 ft 379 kts 249°
2026-05-05 13:02 59.05801 14.95876 37340 ft 380 kts 249°
2026-05-05 13:03 59.04810 14.91109 37550 ft 381 kts 249°
2026-05-05 13:03 59.03815 14.86331 37738 ft 382 kts 249°
2026-05-05 13:03 59.02817 14.81529 37858 ft 384 kts 249°
2026-05-05 13:03 59.01814 14.76725 37909 ft 384 kts 249°
2026-05-05 13:04 58.99809 14.67135 37908 ft 383 kts 249°
2026-05-05 13:04 58.97790 14.57554 37911 ft 384 kts 249°
2026-05-05 13:05 58.95748 14.47925 37913 ft 384 kts 249°
2026-05-05 13:05 58.93726 14.38424 37910 ft 383 kts 249°
2026-05-05 13:06 58.91551 14.29000 37919 ft 385 kts 240°
2026-05-05 13:06 58.88699 14.20193 37928 ft 387 kts 240°
2026-05-05 13:07 58.85837 14.11388 37934 ft 387 kts 240°
2026-05-05 13:07 58.82965 14.02569 37906 ft 387 kts 240°
2026-05-05 13:08 58.80092 13.93777 37910 ft 389 kts 240°
2026-05-05 13:08 58.77189 13.84968 37918 ft 389 kts 240°
2026-05-05 13:09 58.74278 13.76160 37923 ft 390 kts 240°
2026-05-05 13:09 58.71361 13.67351 37928 ft 390 kts 239°
2026-05-05 13:10 58.68436 13.58556 37931 ft 391 kts 239°
2026-05-05 13:10 58.65498 13.49760 37935 ft 391 kts 239°
2026-05-05 13:11 58.62555 13.40983 37938 ft 391 kts 239°
2026-05-05 13:11 58.59606 13.32211 37921 ft 392 kts 239°
2026-05-05 13:12 58.56654 13.23442 37948 ft 393 kts 239°
2026-05-05 13:12 58.53680 13.14657 37947 ft 393 kts 239°
2026-05-05 13:13 58.50700 13.05887 37948 ft 393 kts 239°
2026-05-05 13:13 58.47717 12.97131 37949 ft 393 kts 239°
2026-05-05 13:14 58.44725 12.88409 37945 ft 392 kts 239°
2026-05-05 13:14 58.41746 12.79769 37943 ft 392 kts 239°
2026-05-05 13:15 58.38751 12.71093 37902 ft 392 kts 239°
2026-05-05 13:15 58.35754 12.62418 37948 ft 392 kts 239°
2026-05-05 13:16 58.32745 12.53771 37961 ft 392 kts 239°
2026-05-05 13:16 58.29730 12.45123 37983 ft 392 kts 239°
2026-05-05 13:17 58.26715 12.36486 37976 ft 392 kts 239°
2026-05-05 13:17 58.23682 12.27857 37974 ft 392 kts 239°
2026-05-05 13:18 58.20648 12.19265 37973 ft 392 kts 239°
2026-05-05 13:18 58.17611 12.10682 37974 ft 392 kts 239°
2026-05-05 13:19 58.14571 12.02119 37972 ft 392 kts 238°
2026-05-05 13:19 58.11524 11.93578 37982 ft 390 kts 239°
2026-05-05 13:20 58.08484 11.85083 37990 ft 390 kts 238°
2026-05-05 13:20 58.05440 11.76602 37985 ft 390 kts 238°
2026-05-05 13:21 58.02391 11.68120 37988 ft 390 kts 238°
2026-05-05 13:21 57.99331 11.59649 37990 ft 390 kts 238°
2026-05-05 13:22 57.96260 11.51207 37991 ft 390 kts 238°
2026-05-05 13:22 57.93206 11.42837 37967 ft 390 kts 238°
2026-05-05 13:23 57.90120 11.34372 37981 ft 390 kts 238°
2026-05-05 13:23 57.87039 11.25969 37989 ft 390 kts 238°
2026-05-05 13:24 57.83956 11.17587 37994 ft 390 kts 238°
2026-05-05 13:24 57.80888 11.09285 37981 ft 389 kts 238°
2026-05-05 13:25 57.77793 11.00937 37991 ft 390 kts 238°
2026-05-05 13:25 57.74698 10.92597 38022 ft 390 kts 238°
2026-05-05 13:26 57.71568 10.84216 37981 ft 391 kts 238°
2026-05-05 13:26 57.68466 10.75933 37990 ft 391 kts 238°
2026-05-05 13:27 57.65338 10.67597 37989 ft 392 kts 237°
2026-05-05 13:27 57.62200 10.59279 37997 ft 392 kts 237°
2026-05-05 13:28 57.59056 10.50982 37998 ft 392 kts 237°
2026-05-05 13:28 57.55885 10.42643 37999 ft 392 kts 237°
2026-05-05 13:29 57.52757 10.34425 38000 ft 391 kts 237°
2026-05-05 13:29 57.49605 10.26177 37955 ft 391 kts 237°
2026-05-05 13:30 57.46444 10.17930 37971 ft 392 kts 237°
2026-05-05 13:30 57.43269 10.09688 37975 ft 393 kts 237°
2026-05-05 13:31 57.40062 10.01374 37984 ft 394 kts 237°
2026-05-05 13:31 57.36888 9.93174 37983 ft 395 kts 237°
2026-05-05 13:32 57.33677 9.84920 37992 ft 395 kts 237°
2026-05-05 13:32 57.30437 9.76634 37999 ft 395 kts 237°
2026-05-05 13:33 57.27230 9.68463 37953 ft 395 kts 237°
2026-05-05 13:33 57.24004 9.60243 37980 ft 395 kts 237°
2026-05-05 13:34 57.20760 9.52018 38015 ft 396 kts 237°
2026-05-05 13:34 57.17517 9.43827 38012 ft 395 kts 236°
2026-05-05 13:35 57.14275 9.35663 38014 ft 395 kts 237°
2026-05-05 13:35 57.11026 9.27485 38014 ft 396 kts 236°
2026-05-05 13:36 57.07767 9.19322 38013 ft 396 kts 236°
2026-05-05 13:36 57.04501 9.11175 37968 ft 396 kts 236°
2026-05-05 13:37 57.01222 9.03023 37994 ft 397 kts 236°
2026-05-05 13:37 56.97936 8.94902 38012 ft 397 kts 236°
2026-05-05 13:38 56.94639 8.86790 38015 ft 396 kts 236°
2026-05-05 13:38 56.91347 8.78694 38029 ft 396 kts 236°
2026-05-05 13:39 56.88056 8.70606 38021 ft 396 kts 236°
2026-05-05 13:39 56.84752 8.62529 38025 ft 397 kts 236°
2026-05-05 13:40 56.81443 8.54458 37979 ft 396 kts 236°
2026-05-05 13:40 56.78690 8.47766 37991 ft 397 kts 236°
2026-05-05 13:41 56.75367 8.39726 38008 ft 397 kts 236°
2026-05-05 13:41 56.72032 8.31693 38017 ft 397 kts 235°
2026-05-05 13:42 56.68710 8.23690 38014 ft 396 kts 235°
2026-05-05 13:42 56.65380 8.15696 38015 ft 396 kts 235°
2026-05-05 13:43 56.62037 8.07715 38023 ft 398 kts 235°
2026-05-05 13:43 56.58673 7.99712 38022 ft 398 kts 235°
2026-05-05 13:44 56.55307 7.91733 37995 ft 399 kts 235°
2026-05-05 13:44 56.51929 7.83758 38015 ft 399 kts 235°
2026-05-05 13:45 56.48546 7.75798 38015 ft 399 kts 235°
2026-05-05 13:45 56.45155 7.67835 38019 ft 399 kts 235°
2026-05-05 13:46 56.41769 7.59886 38031 ft 399 kts 234°
2026-05-05 13:46 56.38379 7.51959 38026 ft 398 kts 234°
2026-05-05 13:47 56.34981 7.44060 38004 ft 399 kts 234°
2026-05-05 13:47 56.31575 7.36156 38012 ft 399 kts 234°
2026-05-05 13:48 56.28159 7.28258 38022 ft 399 kts 234°
2026-05-05 13:48 56.24736 7.20386 38030 ft 399 kts 234°
2026-05-05 13:49 56.21315 7.12523 38023 ft 399 kts 234°
2026-05-05 13:49 56.17894 7.04665 38030 ft 399 kts 234°
2026-05-05 13:50 56.14471 6.96837 38027 ft 399 kts 234°
2026-05-05 13:50 56.11035 6.89033 37998 ft 399 kts 234°
2026-05-05 13:51 56.07612 6.81291 38003 ft 399 kts 234°
2026-05-05 13:51 56.04164 6.73499 38006 ft 399 kts 234°
2026-05-05 13:52 56.00715 6.65712 38004 ft 400 kts 233°
2026-05-05 13:52 55.97246 6.57933 38012 ft 401 kts 233°
2026-05-05 13:53 55.93766 6.50157 38019 ft 401 kts 233°
2026-05-05 13:53 55.90277 6.42378 38023 ft 401 kts 233°
2026-05-05 13:54 55.86790 6.34612 38030 ft 402 kts 233°
2026-05-05 13:54 55.83286 6.26843 38032 ft 402 kts 233°
2026-05-05 13:55 55.79690 6.18904 38037 ft 401 kts 233°
2026-05-05 13:55 55.76182 6.11175 38028 ft 402 kts 233°
2026-05-05 13:56 55.72672 6.03457 38026 ft 402 kts 233°
2026-05-05 13:56 55.69149 5.95752 38021 ft 402 kts 233°
2026-05-05 13:57 55.65623 5.88064 38021 ft 402 kts 233°
2026-05-05 13:57 55.62091 5.80364 37992 ft 403 kts 233°
2026-05-05 13:58 55.58546 5.72671 38008 ft 403 kts 233°
2026-05-05 13:58 55.54993 5.65007 38016 ft 403 kts 232°
2026-05-05 13:59 55.49665 5.53537 38021 ft 402 kts 232°
2026-05-05 14:00 55.44917 5.43379 38019 ft 404 kts 232°
2026-05-05 14:00 55.40743 5.34465 38011 ft 403 kts 232°
2026-05-05 14:01 55.37171 5.26843 38009 ft 404 kts 232°
2026-05-05 14:01 55.33600 5.19268 38020 ft 404 kts 232°
2026-05-05 14:02 55.30007 5.11676 38010 ft 404 kts 232°
2026-05-05 14:02 55.26413 5.04093 38010 ft 404 kts 231°
2026-05-05 14:03 55.22104 4.97757 38014 ft 410 kts 212°
2026-05-05 14:03 55.17076 4.93015 38011 ft 410 kts 211°
2026-05-05 14:04 55.12050 4.88289 37981 ft 411 kts 211°
2026-05-05 14:04 55.07008 4.83560 37995 ft 412 kts 211°
2026-05-05 14:05 55.01961 4.78831 37990 ft 412 kts 211°
2026-05-05 14:05 54.96907 4.74109 38008 ft 412 kts 211°
2026-05-05 14:06 54.91850 4.69405 38012 ft 412 kts 211°
2026-05-05 14:06 54.86796 4.64708 37989 ft 413 kts 211°
2026-05-05 14:07 54.81720 4.60026 37996 ft 414 kts 211°
2026-05-05 14:07 54.76631 4.55339 38003 ft 414 kts 211°
2026-05-05 14:08 54.71538 4.50630 38011 ft 415 kts 211°
2026-05-05 14:08 54.66441 4.45931 38002 ft 415 kts 210°
2026-05-05 14:09 54.61336 4.41273 38010 ft 415 kts 210°
2026-05-05 14:09 54.56228 4.36614 38013 ft 415 kts 210°
2026-05-05 14:10 54.51124 4.31965 38010 ft 415 kts 210°
2026-05-05 14:10 54.46001 4.27309 38022 ft 417 kts 210°
2026-05-05 14:11 54.40869 4.22663 38004 ft 416 kts 210°
2026-05-05 14:11 54.35741 4.18037 38010 ft 416 kts 210°
2026-05-05 14:12 54.30613 4.13434 38011 ft 416 kts 210°
2026-05-05 14:12 54.25512 4.08868 38009 ft 416 kts 210°
2026-05-05 14:13 54.20395 4.04279 38005 ft 415 kts 210°
2026-05-05 14:13 54.15237 3.99678 37995 ft 415 kts 209°
2026-05-05 14:14 54.10144 3.95151 38007 ft 416 kts 209°
2026-05-05 14:14 54.05015 3.90596 38012 ft 416 kts 209°
2026-05-05 14:15 54.00716 3.86794 38010 ft 415 kts 209°
2026-05-05 14:15 53.94751 3.81540 38015 ft 416 kts 209°
2026-05-05 14:16 53.90454 3.77762 38010 ft 415 kts 209°
2026-05-05 14:16 53.85360 3.73290 38015 ft 415 kts 209°
2026-05-05 14:17 53.80228 3.68795 38017 ft 415 kts 209°
2026-05-05 14:17 53.75106 3.64316 38021 ft 415 kts 209°
2026-05-05 14:18 53.69981 3.59851 38019 ft 415 kts 208°
2026-05-05 14:18 53.64840 3.55385 38012 ft 415 kts 209°
2026-05-05 14:19 53.59702 3.50944 38015 ft 416 kts 208°
2026-05-05 14:19 53.54557 3.46515 38016 ft 415 kts 208°
2026-05-05 14:20 53.49411 3.42088 38016 ft 415 kts 208°
2026-05-05 14:20 53.44280 3.37674 38015 ft 414 kts 208°
2026-05-05 14:21 53.39143 3.33275 38013 ft 415 kts 208°
2026-05-05 14:21 53.34000 3.28887 38013 ft 415 kts 208°
2026-05-05 14:22 53.28857 3.24513 38007 ft 414 kts 208°
2026-05-05 14:22 53.23721 3.20154 38006 ft 414 kts 208°
2026-05-05 14:23 53.18582 3.15799 37991 ft 414 kts 208°
2026-05-05 14:23 53.13436 3.11456 37997 ft 414 kts 208°
2026-05-05 14:24 53.08291 3.07122 37998 ft 414 kts 208°
2026-05-05 14:24 53.03155 3.02806 38011 ft 414 kts 208°
2026-05-05 14:25 52.98002 2.98506 37997 ft 414 kts 208°
2026-05-05 14:25 52.92851 2.94210 37988 ft 414 kts 208°
2026-05-05 14:26 52.87694 2.89894 37999 ft 415 kts 208°
2026-05-05 14:26 52.82534 2.85595 37999 ft 415 kts 208°
2026-05-05 14:27 52.77368 2.81312 38003 ft 415 kts 207°
2026-05-05 14:27 52.72196 2.77031 37992 ft 415 kts 207°
2026-05-05 14:28 52.67028 2.72778 37998 ft 415 kts 207°
2026-05-05 14:28 52.61859 2.68532 38000 ft 415 kts 207°
2026-05-05 14:29 52.56704 2.64300 37995 ft 414 kts 207°
2026-05-05 14:29 52.51547 2.60086 37995 ft 414 kts 207°
2026-05-05 14:30 52.46383 2.55871 37990 ft 414 kts 207°
2026-05-05 14:30 52.41185 2.51647 37772 ft 424 kts 207°
2026-05-05 14:31 52.38524 2.49484 37502 ft 428 kts 207°
2026-05-05 14:31 52.35861 2.47319 37240 ft 427 kts 207°
2026-05-05 14:31 52.33206 2.45164 36964 ft 425 kts 207°
2026-05-05 14:31 52.30601 2.43059 36712 ft 421 kts 207°
2026-05-05 14:32 52.27962 2.40932 36342 ft 415 kts 207°
2026-05-05 14:32 52.25420 2.38888 35922 ft 412 kts 207°
2026-05-05 14:32 52.22863 2.36833 35511 ft 408 kts 207°
2026-05-05 14:32 52.20332 2.34796 35199 ft 403 kts 207°
2026-05-05 14:33 52.17812 2.32766 34651 ft 403 kts 207°
2026-05-05 14:33 52.15307 2.30749 34214 ft 400 kts 207°
2026-05-05 14:33 52.12825 2.28727 33747 ft 397 kts 210°
2026-05-05 14:33 52.10542 2.26268 33274 ft 391 kts 219°
2026-05-05 14:34 52.08567 2.23262 32826 ft 387 kts 228°
2026-05-05 14:34 52.06805 2.19977 32379 ft 384 kts 228°
2026-05-05 14:34 52.05057 2.16724 31952 ft 381 kts 228°
2026-05-05 14:34 52.03320 2.13509 31533 ft 378 kts 228°
2026-05-05 14:35 52.01593 2.10319 31112 ft 375 kts 228°
2026-05-05 14:35 51.99874 2.07144 30707 ft 373 kts 227°
2026-05-05 14:35 51.98165 2.03993 30309 ft 372 kts 227°
2026-05-05 14:35 51.96456 2.00852 29893 ft 371 kts 227°
2026-05-05 14:36 51.94758 1.97728 29502 ft 368 kts 227°
2026-05-05 14:36 51.93078 1.94649 29119 ft 363 kts 227°
2026-05-05 14:36 51.91412 1.91590 28743 ft 361 kts 227°
2026-05-05 14:36 51.89760 1.88557 28388 ft 358 kts 227°
2026-05-05 14:37 51.88121 1.85546 28034 ft 355 kts 227°
2026-05-05 14:37 51.86495 1.82561 27670 ft 352 kts 227°
2026-05-05 14:37 51.84887 1.79613 27312 ft 349 kts 227°
2026-05-05 14:37 51.83284 1.76680 26953 ft 346 kts 227°
2026-05-05 14:38 51.81691 1.73775 26589 ft 343 kts 227°
2026-05-05 14:38 51.80113 1.70900 26226 ft 340 kts 227°
2026-05-05 14:38 51.78536 1.68017 25838 ft 346 kts 227°
2026-05-05 14:38 51.76965 1.65080 25462 ft 345 kts 231°
2026-05-05 14:39 51.75664 1.61792 25064 ft 350 kts 241°
2026-05-05 14:39 51.74762 1.58138 24601 ft 354 kts 251°
2026-05-05 14:39 51.74304 1.54196 24058 ft 360 kts 262°
2026-05-05 14:39 51.74053 1.50151 23505 ft 364 kts 262°
2026-05-05 14:40 51.73800 1.46081 22882 ft 364 kts 261°
2026-05-05 14:40 51.73543 1.42019 22349 ft 365 kts 262°
2026-05-05 14:40 51.73284 1.37924 21791 ft 367 kts 262°
2026-05-05 14:40 51.73019 1.33832 21243 ft 368 kts 262°
2026-05-05 14:41 51.72744 1.29734 20693 ft 367 kts 262°
2026-05-05 14:41 51.72467 1.25656 20219 ft 365 kts 262°
2026-05-05 14:41 51.72192 1.21584 19748 ft 363 kts 263°
2026-05-05 14:41 51.71921 1.17557 19301 ft 360 kts 263°
2026-05-05 14:42 51.71651 1.13556 18776 ft 356 kts 263°
2026-05-05 14:42 51.71385 1.09606 17967 ft 352 kts 263°
2026-05-05 14:42 51.71125 1.05740 17397 ft 341 kts 263°
2026-05-05 14:42 51.70867 1.01962 16894 ft 339 kts 263°
2026-05-05 14:43 51.70604 0.98180 16385 ft 340 kts 263°
2026-05-05 14:43 51.70340 0.94387 15871 ft 340 kts 264°
2026-05-05 14:43 51.70077 0.90604 15469 ft 337 kts 264°
2026-05-05 14:43 51.69813 0.86854 15053 ft 335 kts 264°
2026-05-05 14:44 51.69552 0.83123 14637 ft 333 kts 264°
2026-05-05 14:44 51.69294 0.79426 14223 ft 332 kts 264°
2026-05-05 14:44 51.69033 0.75737 13818 ft 331 kts 264°
2026-05-05 14:44 51.68773 0.72069 13371 ft 329 kts 264°
2026-05-05 14:45 51.68513 0.68414 12960 ft 326 kts 264°
2026-05-05 14:45 51.68259 0.64803 12556 ft 323 kts 264°
2026-05-05 14:45 51.68007 0.61215 12161 ft 321 kts 264°
2026-05-05 14:45 51.67753 0.57658 11762 ft 318 kts 264°
2026-05-05 14:46 51.67496 0.54128 11360 ft 316 kts 264°
2026-05-05 14:46 51.67243 0.50668 10974 ft 314 kts 264°
2026-05-05 14:46 51.66990 0.47186 10625 ft 311 kts 264°
2026-05-05 14:46 51.66744 0.43796 10496 ft 300 kts 264°
2026-05-05 14:47 51.66495 0.40444 10211 ft 296 kts 264°
2026-05-05 14:47 51.66253 0.37214 9883 ft 294 kts 264°
2026-05-05 14:47 51.66007 0.33956 9524 ft 292 kts 264°
2026-05-05 14:47 51.65766 0.30730 9157 ft 290 kts 264°
2026-05-05 14:48 51.65527 0.27503 8780 ft 289 kts 264°
2026-05-05 14:48 51.65286 0.24296 8419 ft 288 kts 264°
2026-05-05 14:48 51.65045 0.21099 8078 ft 286 kts 264°
2026-05-05 14:48 51.64803 0.17922 7721 ft 286 kts 264°
2026-05-05 14:49 51.64561 0.14757 7381 ft 285 kts 265°
2026-05-05 14:49 51.64354 0.11549 7035 ft 283 kts 266°
2026-05-05 14:49 51.64187 0.08433 6966 ft 279 kts 266°
2026-05-05 14:49 51.64030 0.05362 6972 ft 279 kts 267°
2026-05-05 14:50 51.63869 0.02246 6972 ft 278 kts 266°
2026-05-05 14:50 51.63706 -0.00853 7009 ft 278 kts 266°
2026-05-05 14:50 51.63540 -0.03954 7007 ft 279 kts 266°
2026-05-05 14:50 51.63368 -0.07062 7015 ft 278 kts 266°
2026-05-05 14:51 51.63195 -0.10160 7019 ft 278 kts 266°
2026-05-05 14:51 51.63015 -0.13239 7021 ft 277 kts 266°
2026-05-05 14:51 51.62839 -0.16332 7035 ft 278 kts 266°
2026-05-05 14:51 51.62663 -0.19432 7042 ft 278 kts 266°
2026-05-05 14:52 51.62484 -0.22536 7035 ft 278 kts 265°
2026-05-05 14:52 51.62306 -0.25631 7028 ft 278 kts 266°
2026-05-05 14:52 51.62125 -0.28721 7036 ft 278 kts 266°
2026-05-05 14:52 51.61943 -0.31824 7040 ft 277 kts 266°
2026-05-05 14:53 51.61763 -0.34910 6945 ft 273 kts 265°
2026-05-05 14:53 51.61589 -0.37878 6946 ft 259 kts 266°
2026-05-05 14:53 51.61424 -0.40691 6946 ft 247 kts 265°
2026-05-05 14:53 51.61262 -0.43439 6954 ft 247 kts 266°
2026-05-05 14:54 51.61110 -0.46147 6954 ft 246 kts 266°
2026-05-05 14:54 51.60942 -0.48915 6949 ft 245 kts 265°
2026-05-05 14:54 51.60778 -0.51648 6950 ft 245 kts 266°
2026-05-05 14:54 51.60613 -0.54381 6953 ft 245 kts 266°
2026-05-05 14:55 51.60450 -0.57032 6947 ft 230 kts 265°
2026-05-05 14:55 51.60294 -0.59548 6948 ft 224 kts 266°
2026-05-05 14:55 51.60139 -0.62043 6961 ft 227 kts 266°
2026-05-05 14:55 51.59986 -0.64529 6953 ft 223 kts 266°
2026-05-05 14:56 51.59833 -0.67039 6693 ft 228 kts 265°
2026-05-05 14:56 51.59677 -0.69599 6333 ft 232 kts 266°
2026-05-05 14:56 51.59508 -0.72202 5986 ft 235 kts 265°
2026-05-05 14:56 51.59344 -0.74809 5651 ft 231 kts 266°
2026-05-05 14:57 51.58930 -0.77246 5358 ft 227 kts 240°
2026-05-05 14:57 51.57827 -0.79022 5066 ft 226 kts 207°
2026-05-05 14:57 51.56855 -0.79571 4900 ft 223 kts 186°
2026-05-05 14:57 51.54799 -0.79556 4518 ft 219 kts 175°
2026-05-05 14:58 51.53790 -0.79497 4335 ft 220 kts 176°
2026-05-05 14:58 51.52258 -0.79411 4057 ft 219 kts 176°
2026-05-05 14:58 51.50732 -0.79328 3816 ft 219 kts 176°
2026-05-05 14:58 51.49220 -0.79208 3573 ft 215 kts 169°
2026-05-05 14:59 51.47948 -0.78154 3337 ft 206 kts 124°
2026-05-05 14:59 51.47503 -0.76074 3104 ft 199 kts 88°
2026-05-05 14:59 51.47563 -0.73870 2892 ft 197 kts 84°
2026-05-05 14:59 51.47617 -0.71698 2755 ft 192 kts 86°
2026-05-05 15:00 51.47640 -0.69584 2666 ft 189 kts 86°
2026-05-05 15:00 51.47654 -0.67502 2485 ft 184 kts 86°
2026-05-05 15:00 51.47665 -0.65485 2237 ft 175 kts 85°
2026-05-05 15:00 51.47675 -0.63587 1994 ft 166 kts 86°
2026-05-05 15:01 51.47685 -0.61793 1778 ft 156 kts 86°
2026-05-05 15:01 51.47694 -0.60101 1569 ft 147 kts 86°
2026-05-05 15:01 51.47702 -0.58531 1380 ft 141 kts 86°
2026-05-05 15:01 51.47709 -0.56990 1198 ft 137 kts 86°
2026-05-05 15:02 51.47717 -0.55472 1016 ft 136 kts 86°
2026-05-05 15:02 51.47724 -0.53953 814 ft 137 kts 86°
2026-05-05 15:02 51.47730 -0.52421 618 ft 138 kts 88°
2026-05-05 15:02 51.47735 -0.50874 407 ft 139 kts 86°
2026-05-05 15:03 51.47752 -0.49317 224 ft 141 kts 86°
2026-05-05 15:03 51.47748 -0.47742 88 ft 135 kts 85°
2026-05-05 15:03 51.47761 -0.46467 91 ft 91 kts 90°
2026-05-05 15:03 51.47762 -0.45729 84 ft 41 kts 89°
2026-05-05 15:04 51.47737 -0.45491 87 ft 16 kts 137°
2026-05-05 15:04 51.47660 -0.45467 86 ft 7 kts 179°
2026-05-05 15:04 51.47605 -0.45488 89 ft 9 kts 226°
2026-05-05 15:04 51.47596 -0.45604 86 ft 12 kts 270°
2026-05-05 15:05 51.47595 -0.45945 88 ft 18 kts 270°
2026-05-05 15:05 51.47595 -0.46161 88 ft 21 kts 270°
2026-05-05 15:05 51.47593 -0.46405 86 ft 23 kts 270°
2026-05-05 15:06 51.47592 -0.46678 86 ft 24 kts 270°
2026-05-05 15:06 51.47584 -0.46870 88 ft 17 kts 259°
2026-05-05 15:06 51.47582 -0.47078 86 ft 20 kts 270°
2026-05-05 15:06 51.47581 -0.47321 91 ft 23 kts 269°
2026-05-05 15:07 51.47581 -0.47597 90 ft 26 kts 270°
2026-05-05 15:07 51.47581 -0.47902 90 ft 28 kts 270°
2026-05-05 15:07 51.47579 -0.48215 87 ft 23 kts 269°
2026-05-05 15:07 51.47578 -0.48407 91 ft 10 kts 269°
2026-05-05 15:08 51.47538 -0.48476 89 ft 10 kts 182°
2026-05-05 15:08 51.47465 -0.48475 90 ft 11 kts 180°
2026-05-05 15:08 51.47384 -0.48474 86 ft 12 kts 179°
2026-05-05 15:08 51.47302 -0.48474 86 ft 7 kts 180°
2026-05-05 15:09 51.47278 -0.48474 90 ft 3 kts 181°
2026-05-05 15:09 51.47273 -0.48496 90 ft 3 kts 262°
2026-05-05 15:09 51.47271 -0.48534 86 ft 4 kts 270°
2026-05-05 15:09 51.47271 -0.48574 89 ft 1 kts 269°
2026-05-05 15:10 51.47271 -0.48579 86 ft 1 kts 269°
2026-05-05 15:10 51.47271 -0.48585 91 ft 0 kts 269°